Terug naar catalogus

CZ-3A R/B

ActiefHEO
NORAD 41435·ROCKET BODY·🇨🇳 China

Gelanceerd Mar 29, 2016 vanaf Xichang Satellite Launch Center

Loading…

Volgende Passages (komende 24 uur)

TLE

VersSource: Space-Track

Epoch: Sep 8, 2026, 07:56 UTC

1 41435U 16021B   26251.33092760 -.00000032  00000-0  00000-0 0  9999
2 41435  55.0525 343.8954 6667072 281.3327  15.7441  2.39505245 90979

Volg CZ-3A R/B in realtime met AllMySat

Download on the App Store